Date,TemperatureHighF,TemperatureAvgF,TemperatureLowF,DewpointHighF,DewpointAvgF,DewpointLowF,HumidityHigh,HumidityAvg,HumidityLow,PressureMaxIn,PressureMinIn,WindSpeedMaxMPH,WindSpeedAvgMPH,GustSpeedMaxMPH,PrecipitationSumIn
2013-1-1,23,22,21,22,21,20,97,96,93,30.55,30.38,4,1,8,0.00
2013-1-2,24,22,20,21,19,17,96,90,84,30.55,30.42,7,1,9,0.00
2013-1-3,24,19,15,20,17,14,96,92,85,30.43,30.26,6,1,7,0.00
2013-1-4,25,21,17,23,19,16,97,95,89,30.37,30.29,5,0,6,0.00
2013-1-5,27,25,23,26,24,22,97,95,92,30.37,30.11,6,1,8,0.02
2013-1-6,26,24,24,25,23,23,97,96,94,30.13,30.02,9,4,12,0.05
2013-1-7,31,27,24,31,26,23,98,97,94,30.03,29.79,13,4,18,0.50
2013-1-8,36,30,26,35,29,25,98,95,84,30.09,29.77,18,3,24,0.18
2013-1-9,41,38,32,38,34,31,98,86,71,29.77,29.56,23,10,35,0.07
2013-1-10,32,28,22,32,24,17,98,85,68,29.88,29.72,22,9,30,0.15
2013-1-11,30,23,17,20,18,14,93,78,60,30.16,29.88,16,5,24,0.80
2013-1-12,23,15,9,15,11,8,96,86,59,30.25,30.15,9,1,18,1.03
2013-1-13,19,15,11,15,12,9,95,88,80,30.35,30.24,6,1,7,0.19
2013-1-14,20,18,15,19,16,14,96,94,91,30.39,30.25,6,2,10,0.03
2013-1-15,22,20,19,21,19,18,97,95,95,30.55,30.39,5,1,7,0.00
2013-1-16,24,22,21,23,21,20,97,97,96,30.56,30.50,5,1,7,0.00
2013-1-17,25,22,20,24,21,19,97,97,96,30.52,30.30,8,1,9,0.00
2013-1-18,24,21,19,23,19,-100,97,96,95,30.31,30.21,4,0,7,1.74
2013-1-19,29,23,19,28,22,18,97,96,90,30.41,30.31,5,0,6,0.00
2013-1-20,33,24,19,29,22,18,97,94,83,30.47,30.37,4,0,5,0.00
2013-1-21,31,20,13,26,18,12,97,94,78,30.37,30.24,4,0,5,0.00
2013-1-22,23,18,12,22,17,11,97,96,95,30.27,30.11,4,0,5,0.00
2013-1-23,31,26,20,30,25,19,98,96,90,30.12,29.89,15,2,21,0.18
2013-1-24,29,24,22,28,23,21,98,97,96,30.22,29.97,10,1,14,0.18
2013-1-25,33,30,25,32,29,24,98,98,97,30.13,29.90,6,1,8,0.01
2013-1-26,32,31,28,32,31,27,98,97,96,29.91,29.85,8,3,10,0.00
2013-1-27,28,26,25,27,25,24,98,96,95,29.95,29.89,8,5,11,0.00
2013-1-28,28,26,24,27,25,23,98,96,94,29.89,29.80,9,3,12,0.02
2013-1-29,36,30,25,31,27,24,97,90,68,30.13,29.83,9,3,12,0.04
2013-1-30,33,29,26,32,28,26,98,97,95,30.19,30.08,7,2,12,0.04
2013-1-31,32,30,27,32,30,27,98,98,97,30.25,30.16,8,2,10,0.00
2013-2-1,32,27,23,32,27,22,98,98,97,30.43,30.18,5,1,8,0.00
2013-2-2,31,27,23,31,27,22,98,98,97,30.47,30.23,4,0,6,0.00
2013-2-3,31,28,24,31,28,23,98,98,97,30.23,30.07,5,1,8,0.00
2013-2-4,33,31,29,32,30,29,98,98,97,30.08,29.97,8,3,10,0.00
2013-2-5,38,34,30,36,32,29,98,96,88,29.98,29.78,13,5,18,0.00
2013-2-6,39,35,31,34,32,28,96,87,78,30.03,29.85,11,6,15,0.11
2013-2-7,37,34,32,35,33,30,98,96,90,30.02,29.89,8,1,11,0.01
2013-2-8,41,32,27,32,29,26,97,88,71,30.11,30.02,4,1,7,0.01
2013-2-9,40,31,25,32,27,24,97,85,65,30.17,30.01,15,3,18,0.00
2013-2-10,37,29,21,30,26,20,97,87,70,30.25,30.17,8,1,11,0.00
2013-2-11,30,28,25,29,27,24,98,95,92,30.20,30.16,5,0,6,0.00
2013-2-12,37,32,29,33,30,28,95,90,80,30.25,30.10,14,5,20,0.00
2013-2-13,46,37,31,35,30,24,95,77,55,30.34,30.09,8,2,11,0.00
2013-2-14,41,34,29,30,27,23,82,74,61,30.52,30.34,6,1,7,0.00
2013-2-15,43,36,29,34,30,26,90,80,69,30.52,30.27,7,1,10,0.00
2013-2-16,41,35,31,35,32,29,95,89,79,30.27,29.90,14,4,20,0.00
2013-2-17,41,36,32,30,26,23,84,67,51,30.08,29.92,8,2,12,0.00
2013-2-18,36,31,25,30,25,21,94,78,69,30.08,29.85,7,1,14,0.00
2013-2-19,35,32,29,33,31,28,97,95,91,29.85,29.71,5,0,6,0.08
2013-2-20,37,29,22,28,24,21,97,83,64,29.95,29.84,9,2,12,0.01
2013-2-21,33,29,25,30,26,22,95,89,77,29.96,29.91,11,4,16,0.03
2013-2-22,36,32,27,34,30,26,97,94,76,29.93,29.54,17,9,26,0.07
2013-2-23,42,34,29,28,25,23,83,71,54,30.18,29.61,13,5,17,0.01
2013-2-24,35,30,23,29,26,21,96,84,73,30.26,30.18,14,5,20,0.00
2013-2-25,35,32,29,32,29,25,97,88,74,0.00,40.00,11,6,16,0.04
2013-2-26,38,33,27,28,25,22,83,73,57,0.00,40.00,14,5,20,0.01
2013-2-27,42,35,29,32,27,24,96,74,52,0.00,40.00,8,3,12,0.05
2013-2-28,38,33,30,37,32,29,97,96,91,0.00,40.00,7,1,11,0.17
2013-3-1,47,43,37,43,40,36,98,92,82,0.00,40.00,14,8,21,0.01
2013-3-2,46,43,39,42,40,36,95,88,75,0.00,40.00,14,7,21,0.01
2013-3-3,42,36,31,36,23,18,84,58,41,0.00,40.00,19,6,24,0.61
2013-3-4,42,34,28,24,21,17,76,59,44,0.00,40.00,13,4,18,0.10
2013-3-5,36,32,29,30,24,18,87,70,54,0.00,40.00,8,1,12,0.01
2013-3-6,35,33,30,34,31,27,98,92,75,0.00,40.00,10,2,15,0.22
2013-3-7,40,34,32,37,33,31,98,95,84,0.00,40.00,10,5,13,0.23
2013-3-8,45,36,30,37,32,29,97,86,66,0.00,40.00,5,1,8,0.01
2013-3-9,49,39,31,33,28,-100,83,66,47,0.00,40.00,9,3,12,0.05
2013-3-10,42,37,32,34,31,29,91,81,68,0.00,40.00,11,5,17,0.05
2013-3-11,46,39,32,31,26,24,88,62,42,0.00,40.00,10,3,13,0.00
2013-3-12,49,41,33,42,36,25,94,83,55,0.00,40.00,20,6,33,0.00
2013-3-13,51,47,42,43,41,39,89,80,74,0.00,40.00,13,8,21,0.00
2013-3-14,54,49,43,45,43,40,91,80,67,0.00,40.00,13,5,21,0.00
2013-3-15,56,47,40,42,37,34,83,67,51,0.00,40.00,11,5,16,0.00
2013-3-16,47,41,35,38,34,28,93,78,56,0.00,40.00,18,6,27,0.07
2013-3-17,41,35,31,31,24,18,87,64,41,0.00,40.00,13,6,19,0.05
2013-3-18,41,33,29,31,24,19,95,69,56,0.00,40.00,15,7,23,0.04
2013-3-19,44,35,25,27,22,19,85,62,39,0.00,40.00,13,2,20,0.06
2013-3-20,47,38,32,44,33,27,97,86,53,0.00,40.00,17,6,29,0.45
2013-3-21,40,34,29,30,22,16,80,61,39,0.00,40.00,14,6,23,0.02
2013-3-22,38,30,24,23,20,12,82,67,37,0.00,40.00,13,3,23,0.00
2013-3-23,39,32,22,22,19,15,76,59,41,0.00,40.00,12,3,15,0.00
2013-3-24,42,33,25,25,21,19,81,63,41,0.00,40.00,9,2,12,0.00
2013-3-25,47,37,27,25,21,18,72,54,35,0.00,40.00,6,2,12,0.00
2013-3-26,53,42,31,29,24,20,68,51,30,0.00,40.00,7,2,10,0.00
2013-3-27,56,46,34,37,31,25,72,56,41,0.00,40.00,9,3,13,0.00
2013-3-29,58,49,37,42,37,33,93,67,39,0.00,40.00,12,4,16,0.10
2013-3-30,62,52,39,40,35,-100,81,57,35,0.00,40.00,12,4,17,0.01
2013-3-31,67,54,41,41,35,33,74,51,30,0.00,40.00,7,2,10,0.00
2013-4-1,69,58,46,41,37,33,64,46,31,0.00,40.00,11,4,16,0.00
2013-4-2,63,54,43,44,40,37,87,60,44,0.00,40.00,13,6,19,0.00
2013-4-3,61,52,41,43,39,36,87,64,46,0.00,40.00,12,5,17,0.00
2013-4-4,54,49,44,47,42,36,96,79,58,0.00,40.00,14,3,20,0.24
2013-4-5,53,48,43,47,43,41,95,85,67,0.00,40.00,19,9,30,0.10
2013-4-6,53,46,42,43,38,31,96,73,45,0.00,40.00,22,11,33,0.10
2013-4-7,43,39,35,39,35,30,97,88,61,0.00,40.00,10,4,14,0.17
2013-4-8,46,39,34,39,35,31,95,85,66,0.00,40.00,10,4,15,0.09
2013-4-9,49,42,35,38,36,33,96,79,57,0.00,40.00,13,4,17,0.01
2013-4-10,53,45,42,47,39,35,95,78,68,0.00,40.00,20,7,29,0.09
2013-4-11,51,43,37,38,34,27,86,71,48,0.00,40.00,12,3,16,0.05
2013-4-12,45,39,34,37,32,26,96,76,58,0.00,40.00,14,5,22,0.05
2013-4-13,46,38,33,37,27,22,95,68,41,0.00,40.00,13,6,20,0.04
2013-4-14,41,35,31,36,30,23,96,82,65,0.00,40.00,12,2,16,0.06
2013-4-15,41,35,29,32,24,17,95,66,49,0.00,40.00,14,6,20,0.01
2013-4-16,44,36,29,21,18,14,57,46,36,0.00,40.00,15,9,26,0.00
2013-4-17,50,41,28,27,22,17,66,48,33,0.00,40.00,11,4,19,0.00
2013-4-18,56,45,35,41,31,25,88,59,43,0.00,40.00,14,6,19,0.03
2013-4-19,54,46,42,47,42,40,95,86,67,0.00,40.00,15,6,20,0.11
2013-4-20,57,48,41,42,37,31,92,66,44,0.00,40.00,19,7,26,0.01
2013-4-21,49,42,37,32,24,16,65,49,30,0.00,40.00,18,10,29,0.00
2013-4-22,53,42,32,29,23,16,73,49,27,0.00,40.00,13,3,20,0.00
2013-4-23,54,45,34,32,26,20,65,49,38,0.00,40.00,9,2,14,0.00
2013-4-24,61,50,38,34,30,26,72,48,29,0.00,40.00,15,6,21,0.00
2013-4-25,68,57,41,39,34,30,68,44,29,0.00,40.00,10,4,14,0.00
2013-4-26,70,61,46,45,38,29,76,45,24,0.00,40.00,16,6,29,0.00
2013-4-27,64,57,49,38,34,30,62,43,31,0.00,40.00,22,11,38,0.00
2013-4-28,58,50,40,39,33,27,78,53,34,0.00,40.00,20,8,28,0.02
2013-4-29,47,42,34,34,26,18,80,54,31,0.00,40.00,19,11,35,0.02
2013-4-30,48,39,30,27,22,16,74,53,31,0.00,40.00,15,4,21,0.00
2013-5-1,56,45,32,27,22,16,58,41,25,0.00,40.00,15,4,20,0.00
2013-5-2,63,53,38,33,29,23,62,42,29,0.00,40.00,12,5,16,0.00
2013-5-3,68,57,47,39,37,32,70,48,28,0.00,40.00,21,11,30,0.02
2013-5-4,69,61,49,65,35,28,100,40,25,0.00,40.00,16,8,25,0.02
2013-5-5,74,64,50,38,33,27,52,33,22,0.00,40.00,14,4,18,0.00
2013-5-6,80,69,53,43,37,29,55,33,20,0.00,40.00,8,2,11,0.00
2013-5-7,81,69,56,48,43,37,60,40,25,0.00,40.00,9,2,11,0.00
2013-5-8,81,70,57,48,45,39,62,41,27,0.00,40.00,9,3,15,0.00
2013-5-9,82,72,58,46,40,32,52,33,17,0.00,40.00,8,2,12,0.00
2013-5-10,83,71,58,48,38,-100,52,33,19,0.00,40.00,12,4,19,0.00
2013-5-11,80,71,61,50,42,-100,52,37,25,0.00,40.00,12,4,18,0.00
2013-5-12,72,67,62,54,48,42,58,51,36,0.00,40.00,17,8,25,0.00
2013-5-13,63,56,44,50,46,34,92,70,55,0.00,40.00,18,10,30,0.13
2013-5-14,58,49,40,39,33,29,76,57,38,0.00,40.00,13,6,19,0.01
2013-5-15,63,52,42,40,35,30,74,52,33,0.00,40.00,11,4,16,0.00
2013-5-16,62,50,47,50,30,-100,90,74,53,0.00,40.00,13,4,17,0.18
2013-5-17,63,52,43,53,42,-100,95,75,55,0.00,40.00,15,3,28,0.15
2013-5-18,61,52,48,49,46,43,94,80,56,0.00,40.00,15,6,19,0.03
2013-5-19,63,53,47,51,47,44,95,81,60,0.00,40.00,13,2,18,0.03
2013-5-20,67,57,45,52,46,43,94,71,47,0.00,40.00,14,3,17,0.01
2013-5-21,66,54,42,55,45,40,97,74,51,0.00,40.00,18,6,36,0.11
2013-5-22,43,41,38,41,39,36,97,93,82,0.00,40.00,16,5,20,0.04
2013-5-23,56,45,35,41,37,32,96,77,47,0.00,40.00,8,2,12,0.02
2013-5-24,57,47,38,45,39,35,91,76,57,0.00,40.00,16,5,28,0.01
2013-5-25,58,49,39,44,40,37,95,74,51,0.00,40.00,13,5,21,0.00
2013-5-26,65,54,42,46,42,39,91,66,40,0.00,40.00,11,3,17,0.00
2013-5-27,60,54,48,49,46,42,95,76,54,0.00,40.00,14,6,23,0.15
2013-5-28,62,52,47,49,47,45,96,82,62,0.00,40.00,15,6,21,0.15
2013-5-29,55,51,48,49,47,45,93,85,74,0.00,40.00,13,4,19,0.14
2013-5-30,57,49,45,50,45,42,95,86,67,0.00,40.00,11,5,16,0.03
2013-5-31,64,54,44,49,42,38,92,69,40,0.00,40.00,12,3,17,0.05
2013-6-1,65,56,46,47,42,38,83,60,44,0.00,40.00,8,2,10,0.01
2013-6-2,60,53,47,49,46,43,96,76,53,0.00,40.00,21,4,28,0.15
2013-6-3,67,56,46,50,46,41,85,69,44,0.00,40.00,13,2,20,0.01
2013-6-4,72,61,48,50,47,44,87,63,40,0.00,40.00,7,2,10,0.01
2013-6-5,78,67,55,54,48,45,75,53,35,0.00,40.00,14,4,20,0.00
2013-6-6,80,70,58,51,45,37,59,41,28,0.00,40.00,10,4,17,0.00
2013-6-7,77,69,60,52,43,30,65,41,20,0.00,40.00,12,4,19,0.00
2013-6-8,75,65,53,46,39,32,63,40,26,0.00,40.00,16,6,23,0.00
2013-6-9,72,62,51,44,38,28,68,44,20,0.00,40.00,10,2,22,0.00
2013-6-10,73,62,52,45,39,34,61,43,26,0.00,40.00,15,5,21,0.00
2013-6-11,68,60,51,48,40,35,65,50,38,0.00,40.00,18,7,26,0.00
2013-6-12,66,57,44,40,36,30,72,47,28,0.00,40.00,13,6,20,0.00
2013-6-13,62,54,46,45,41,35,77,61,37,0.00,40.00,10,3,16,0.00
2013-6-14,65,54,45,50,44,40,94,70,43,0.00,40.00,13,4,19,0.00
2013-6-15,73,62,48,48,43,38,80,52,31,0.00,40.00,8,2,14,0.00
2013-6-16,80,71,55,50,44,38,65,40,25,0.00,40.00,9,2,14,0.00
2013-6-17,75,67,58,54,48,40,72,52,35,0.00,40.00,17,4,30,0.00
2013-6-18,63,57,53,55,51,47,93,80,60,0.00,40.00,14,4,22,0.00
2013-6-19,56,53,51,53,51,49,96,92,77,0.00,40.00,7,2,11,0.25
2013-6-20,51,48,47,50,48,46,97,96,92,0.00,40.00,12,7,18,0.99
2013-6-21,56,55,53,49,49,49,87,81,78,0.00,40.00,3,1,4,0.02
2013-6-22,66,59,50,53,51,49,96,74,57,0.00,40.00,12,4,18,0.01
2013-6-23,71,61,52,56,52,44,91,72,49,0.00,40.00,8,2,12,0.00
2013-6-24,64,58,53,56,53,44,96,86,49,0.00,40.00,13,6,19,0.42
2013-6-25,64,57,52,55,51,49,95,82,64,0.00,40.00,12,6,18,0.24
2013-6-26,67,60,53,53,51,48,90,72,58,0.00,40.00,16,7,21,0.01
2013-6-27,69,62,54,58,54,50,90,77,62,0.00,40.00,8,1,11,0.00
2013-6-28,81,70,57,60,56,50,89,64,37,0.00,40.00,7,2,10,0.00
2013-6-29,80,72,64,63,58,53,86,64,41,0.00,40.00,17,3,22,0.06
2013-6-30,87,75,61,62,56,51,82,55,30,0.00,40.00,9,2,10,0.06
2013-7-1,91,83,70,64,58,53,58,44,32,0.00,40.00,6,2,9,0.00
2013-7-2,93,84,69,65,58,49,72,44,28,0.00,40.00,13,6,19,0.00
2013-7-3,85,79,71,51,43,36,49,28,21,0.00,40.00,9,5,19,0.00
2013-7-4,82,74,58,53,47,39,62,40,26,0.00,40.00,14,6,18,0.00
2013-7-5,73,67,57,54,50,42,70,56,41,0.00,40.00,13,3,17,0.00
2013-7-6,78,68,59,52,46,37,76,50,26,0.00,40.00,14,3,21,0.00
2013-7-7,81,74,58,50,47,41,58,39,28,0.00,40.00,17,4,19,0.00
2013-7-8,65,65,65,48,48,48,55,55,55,0.00,40.00,16,16,19,0.00
2013-7-11,63,63,63,24,22,20,22,20,19,0.00,40.00,0,0,0,0.00
2013-7-12,67,61,55,42,37,27,56,42,27,0.00,40.00,10,2,14,0.00
2013-7-13,75,66,53,47,41,35,66,42,27,0.00,40.00,9,3,14,0.01
2013-7-14,81,73,55,49,39,32,68,33,18,0.00,40.00,16,8,25,0.01
2013-7-15,75,66,58,44,41,38,50,41,28,0.00,40.00,21,12,31,0.00
2013-7-16,83,71,57,50,46,42,59,42,28,0.00,40.00,17,6,24,0.00
2013-7-17,82,73,64,57,53,46,66,50,36,0.00,40.00,17,7,27,0.00
2013-7-18,84,73,61,55,52,47,70,48,28,0.00,40.00,6,2,11,0.00
2013-7-19,89,79,63,57,47,34,67,36,16,0.00,40.00,13,3,19,0.00
2013-7-20,89,80,64,53,39,-100,56,27,11,0.00,40.00,13,6,19,0.00
2013-7-21,89,81,64,50,44,29,47,29,18,0.00,40.00,15,5,24,0.00
2013-7-22,89,80,63,52,45,37,54,31,17,0.00,40.00,9,3,17,0.00
2013-7-23,91,82,69,53,41,29,48,26,11,0.00,40.00,10,4,16,0.00
2013-7-24,92,82,64,50,40,31,48,25,12,0.00,40.00,14,4,19,0.00
2013-7-25,91,83,65,51,40,32,44,24,13,0.00,40.00,13,5,22,0.00
2013-7-26,91,82,67,49,36,20,44,23,8,0.00,40.00,13,4,19,0.00
2013-7-27,83,76,65,41,36,29,37,24,15,0.00,40.00,13,4,16,0.00
2013-7-28,81,75,65,45,39,36,43,29,20,0.00,40.00,15,6,21,0.00
2013-7-29,80,72,62,49,43,40,52,36,25,0.00,40.00,14,4,22,0.01
2013-7-30,83,76,64,44,40,36,45,28,21,0.00,40.00,13,3,19,0.01
2013-7-31,84,79,71,46,41,35,40,26,18,0.00,40.00,10,4,17,0.00
2013-8-1,76,67,58,57,51,42,88,60,34,0.00,40.00,11,3,18,0.04
2013-8-2,68,60,56,59,56,54,95,89,68,0.00,40.00,12,2,16,0.72
2013-8-3,75,65,58,60,57,55,97,78,49,0.00,40.00,11,2,14,0.72
2013-8-4,80,66,57,59,55,51,91,69,40,0.00,40.00,21,3,35,0.00
2013-8-5,82,68,57,61,54,47,93,65,31,0.00,40.00,14,2,18,0.00
2013-8-6,86,76,61,58,52,42,74,46,29,0.00,40.00,14,4,18,0.00
2013-8-7,87,77,63,57,50,41,69,42,21,0.00,40.00,7,2,11,0.00
2013-8-8,88,80,63,55,48,41,65,36,19,0.00,40.00,8,3,14,0.00
2013-8-9,90,84,67,54,49,43,57,31,20,0.00,40.00,13,5,16,0.00
2013-8-10,87,77,63,57,51,44,80,43,22,0.00,40.00,12,5,32,0.08
2013-8-11,84,74,61,58,54,47,83,52,31,0.00,40.00,14,5,25,0.00
2013-8-21,82,73,59,40,38,35,49,30,19,30.14,30.03,10,4,16,0.00
2013-8-22,85,78,68,46,38,30,42,24,14,30.01,29.85,5,2,10,0.00
2013-8-23,76,70,64,54,49,37,63,49,28,29.88,29.81,12,3,16,0.00
2013-8-24,78,65,57,56,48,-100,84,60,36,29.90,29.79,10,3,15,0.00
2013-8-25,78,68,56,55,50,45,91,53,34,29.97,29.82,20,4,41,0.00
2013-8-26,70,61,53,56,53,51,96,78,55,30.01,29.90,8,3,13,0.00
2013-8-27,74,61,54,55,51,50,86,73,43,30.02,29.98,10,2,15,0.00
2013-8-28,83,76,66,54,50,46,64,42,28,29.94,29.90,12,5,16,0.00
2013-8-29,78,72,64,57,52,48,67,51,41,30.02,29.92,15,6,22,0.00
2013-9-29,52,47,43,50,44,41,93,88,73,29.62,29.35,19,13,32,0.24
2013-9-30,52,47,41,46,40,35,96,79,62,29.79,29.32,20,12,33,0.27
2013-10-1,48,43,41,40,37,36,84,79,68,30.05,29.95,7,3,12,0.01
2013-10-2,43,39,34,39,36,33,97,89,80,30.13,30.06,7,2,12,0.01
2013-10-3,56,48,38,36,34,32,82,61,40,30.38,30.11,20,4,26,0.04
2013-10-4,57,47,35,39,35,32,88,66,44,30.50,30.40,10,3,17,0.04
2013-10-5,59,49,38,39,34,-100,93,62,44,30.40,30.26,11,4,14,0.00
2013-10-18,56,45,35,42,37,33,92,74,57,30.28,30.16,7,2,9,0.12
2013-10-19,55,45,37,43,36,-100,93,75,61,30.16,30.08,5,1,10,0.24
2013-10-20,62,52,41,47,42,38,88,70,56,30.14,30.10,8,1,10,0.05
2013-10-21,61,50,42,48,43,39,90,77,60,30.22,30.16,4,1,6,0.05
2013-10-22,60,50,42,48,44,40,96,80,63,30.22,30.12,3,0,5,0.11
2013-10-23,61,49,39,49,44,38,97,83,63,30.18,30.11,3,0,6,0.11
2013-10-24,59,49,40,47,44,39,95,82,63,30.14,30.08,5,1,7,0.00
2013-10-25,57,47,36,48,42,35,98,86,69,30.28,30.18,4,1,6,0.69
2013-10-26,51,41,35,45,37,-100,98,91,78,30.30,30.04,7,1,10,0.46
2013-10-27,46,42,39,43,38,27,98,86,57,30.02,29.81,22,7,35,0.15
2013-10-28,46,39,35,27,20,-100,60,50,42,30.03,29.92,18,10,26,0.02
2013-10-29,49,39,30,31,25,21,73,59,46,29.97,29.91,13,4,20,0.00
2013-10-30,42,35,28,31,27,23,86,72,61,30.03,29.94,7,2,9,0.00
2013-12-22,26,22,17,25,21,16,97,96,96,30.20,30.01,2,0,4,0.00
2013-12-23,33,29,26,33,29,25,99,97,93,30.24,29.91,9,2,13,0.03
2013-12-24,31,27,21,29,25,20,97,95,87,30.49,30.24,4,1,9,0.03
2013-12-25,31,28,26,28,26,25,96,94,88,30.48,30.34,3,0,5,0.00
2013-12-26,30,28,26,29,27,25,96,95,93,30.34,30.24,5,0,7,0.00
2013-12-27,32,27,24,30,26,23,98,95,84,30.24,29.97,15,3,20,0.00
2013-12-28,38,25,19,33,21,-100,98,91,77,30.37,30.13,6,1,10,0.00